| time (UTC) | temp F | wind direction | speed MPH | gust MPH | rain 1hr in | rain 24hr in | rain mn in | humidity % | barometer mb |
| 20260506014015 | 50 | 356 | 6.0 | 14.0 | 0.00 | 0.00 | 0.00 | 82 | 1013.1 |
| 20260506013513 | 50 | 359 | 11.0 | 17.0 | 0.00 | 0.00 | 0.00 | 82 | 1012.7 |
| 20260506013009 | 50 | 49 | 6.0 | 13.0 | 0.00 | 0.00 | 0.00 | 82 | 1012.5 |
| 20260506012506 | 51 | 34 | 10.0 | 14.0 | 0.00 | 0.00 | 0.00 | 82 | 1012.5 |
| 20260506012003 | 51 | 357 | 9.0 | 14.0 | 0.00 | 0.00 | 0.00 | 82 | 1012.7 |
| 20260506011500 | 51 | 0 | 5.0 | 8.0 | 0.00 | 0.00 | 0.00 | 81 | 1012.9 |
| 20260506010956 | 51 | 65 | 4.0 | 11.0 | 0.00 | 0.00 | 0.00 | 82 | 1012.8 |
| 20260506010456 | 51 | 354 | 6.0 | 15.0 | 0.00 | 0.00 | 0.00 | 81 | 1012.8 |
| 20260506005951 | 51 | 34 | 8.0 | 10.0 | 0.00 | 0.00 | 0.00 | 81 | 1012.6 |
| 20260506005449 | 51 | 32 | 6.0 | 9.0 | 0.00 | 0.00 | 0.00 | 81 | 1012.5 |
| 20260506004944 | 51 | 13 | 10.0 | 22.0 | 0.00 | 0.00 | 0.00 | 80 | 1012.3 |
| 20260506004443 | 51 | 24 | 8.0 | 13.0 | 0.00 | 0.00 | 0.00 | 80 | 1012.5 |
| 20260506003938 | 51 | 15 | 9.0 | 17.0 | 0.00 | 0.00 | 0.00 | 80 | 1012.7 |
| 20260506003435 | 51 | 33 | 8.0 | 13.0 | 0.00 | 0.00 | 0.00 | 80 | 1012.6 |
| 20260506002931 | 51 | 20 | 7.0 | 16.0 | 0.00 | 0.00 | 0.00 | 80 | 1012.6 |
| 20260506002427 | 51 | 9 | 6.0 | 11.0 | 0.00 | 0.00 | 0.00 | 80 | 1012.5 |
| 20260506001923 | 51 | 3 | 9.0 | 17.0 | 0.00 | 0.00 | 0.00 | 79 | 1012.1 |
| 20260506001420 | 51 | 13 | 4.0 | 8.0 | 0.00 | 0.00 | 0.00 | 80 | 1012.0 |
| 20260506000918 | 51 | 356 | 9.0 | 15.0 | 0.00 | 0.00 | 0.00 | 79 | 1012.1 |
| 20260506000416 | 52 | 1 | 10.0 | 16.0 | 0.00 | 0.00 | 0.00 | 79 | 1012.1 |
| 20260505235912 | 52 | 27 | 5.0 | 16.0 | 0.00 | 0.00 | 0.00 | 79 | 1012.4 |
| 20260505235410 | 52 | 342 | 8.0 | 14.0 | 0.00 | 0.00 | 0.00 | 78 | 1012.1 |
| 20260505234907 | 52 | 23 | 11.0 | 15.0 | 0.00 | 0.00 | 0.00 | 78 | 1012.2 |
| 20260505234404 | 52 | 75 | 10.0 | 15.0 | 0.00 | 0.00 | 0.00 | 78 | 1012.2 |
| 20260505233901 | 52 | 27 | 8.0 | 15.0 | 0.00 | 0.00 | 0.00 | 77 | 1012.5 |
| 20260505233358 | 52 | 12 | 9.0 | 15.0 | 0.00 | 0.00 | 0.00 | 77 | 1011.9 |
| 20260505232855 | 52 | 63 | 8.0 | 15.0 | 0.00 | 0.00 | 0.00 | 77 | 1012.1 |
| 20260505232354 | 52 | 16 | 8.0 | 15.0 | 0.00 | 0.00 | 0.00 | 76 | 1011.9 |
| 20260505231850 | 52 | 18 | 10.0 | 16.0 | 0.00 | 0.00 | 0.00 | 77 | 1011.8 |
| 20260505231347 | 52 | 54 | 4.0 | 15.0 | 0.00 | 0.00 | 0.00 | 77 | 1011.8 |
| 20260505230845 | 52 | 23 | 4.0 | 17.0 | 0.00 | 0.00 | 0.00 | 77 | 1011.6 |
| 20260505230342 | 52 | 6 | 6.0 | 21.0 | 0.00 | 0.00 | 0.00 | 77 | 1011.5 |
| 20260505225839 | 52 | 26 | 4.0 | 14.0 | 0.00 | 0.00 | 0.00 | 78 | 1011.5 |
| 20260505225336 | 53 | 353 | 12.0 | 18.0 | 0.00 | 0.00 | 0.00 | 77 | 1011.4 |
| 20260505224831 | 53 | 355 | 15.0 | 19.0 | 0.00 | 0.00 | 0.00 | 77 | 1011.3 |
| 20260505224330 | 53 | 8 | 6.0 | 17.0 | 0.00 | 0.00 | 0.00 | 77 | 1011.1 |
| 20260505223826 | 53 | 310 | 8.0 | 15.0 | 0.00 | 0.00 | 0.00 | 77 | 1011.1 |
| 20260505223323 | 53 | 11 | 10.0 | 22.0 | 0.00 | 0.00 | 0.00 | 77 | 1011.2 |
| 20260505222819 | 53 | 358 | 7.0 | 23.0 | 0.00 | 0.00 | 0.00 | 78 | 1010.9 |
| 20260505222315 | 53 | 8 | 13.0 | 16.0 | 0.00 | 0.00 | 0.00 | 78 | 1010.3 |
| 20260505221813 | 53 | 35 | 6.0 | 16.0 | 0.00 | 0.00 | 0.00 | 79 | 1010.7 |
| 20260505221309 | 53 | 58 | 6.0 | 15.0 | 0.00 | 0.00 | 0.00 | 79 | 1010.7 |
| 20260505220806 | 54 | 64 | 9.0 | 11.0 | 0.00 | 0.00 | 0.00 | 79 | 1010.9 |
| 20260505220303 | 53 | 19 | 8.0 | 14.0 | 0.00 | 0.00 | 0.00 | 79 | 1010.7 |
| 20260505215802 | 53 | 28 | 9.0 | 14.0 | 0.00 | 0.00 | 0.00 | 79 | 1011.1 |
| 20260505215259 | 53 | 359 | 11.0 | 17.0 | 0.00 | 0.00 | 0.00 | 80 | 1010.7 |
| 20260505214756 | 53 | 337 | 11.0 | 23.0 | 0.00 | 0.00 | 0.00 | 80 | 1010.7 |
| 20260505214254 | 53 | 1 | 13.0 | 21.0 | 0.00 | 0.00 | 0.00 | 80 | 1010.5 |
| 20260505213751 | 53 | 329 | 11.0 | 16.0 | 0.00 | 0.00 | 0.00 | 80 | 1010.9 |
| 20260505213248 | 53 | 37 | 8.0 | 17.0 | 0.00 | 0.00 | 0.00 | 80 | 1011.0 |
| 20260505212743 | 53 | 351 | 14.0 | 23.0 | 0.00 | 0.00 | 0.00 | 80 | 1011.0 |
| 20260505212242 | 54 | 29 | 6.0 | 16.0 | 0.00 | 0.00 | 0.00 | 81 | 1010.9 |
| 20260505211738 | 54 | 19 | 4.0 | 14.0 | 0.00 | 0.00 | 0.00 | 82 | 1010.6 |
| 20260505211236 | 54 | 9 | 7.0 | 19.0 | 0.00 | 0.00 | 0.00 | 83 | 1010.1 |
| 20260505210732 | 54 | 33 | 7.0 | 11.0 | 0.00 | 0.00 | 0.00 | 84 | 1010.3 |
| 20260505210229 | 54 | 50 | 11.0 | 17.0 | 0.00 | 0.00 | 0.00 | 84 | 1010.3 |
| 20260505205726 | 54 | 52 | 9.0 | 11.0 | 0.00 | 0.00 | 0.00 | 84 | 1010.2 |
| 20260505205224 | 54 | 57 | 6.0 | 16.0 | 0.00 | 0.00 | 0.00 | 85 | 1010.2 |
| 20260505204720 | 54 | 9 | 15.0 | 21.0 | 0.00 | 0.00 | 0.00 | 84 | 1010.5 |
| 20260505204218 | 54 | 41 | 10.0 | 21.0 | 0.00 | 0.00 | 0.00 | 85 | 1010.4 |
| 20260505203715 | 54 | 9 | 3.0 | 11.0 | 0.00 | 0.00 | 0.00 | 85 | 1010.7 |
| 20260505203212 | 55 | 350 | 7.0 | 14.0 | 0.00 | 0.00 | 0.00 | 84 | 1010.5 |
| 20260505202708 | 55 | 356 | 8.0 | 16.0 | 0.00 | 0.00 | 0.00 | 84 | 1010.3 |
| 20260505202204 | 55 | 16 | 4.0 | 11.0 | 0.00 | 0.00 | 0.00 | 84 | 1010.0 |
| 20260505201700 | 55 | 3 | 6.0 | 13.0 | 0.00 | 0.00 | 0.00 | 84 | 1010.0 |
| 20260505201159 | 55 | 25 | 8.0 | 13.0 | 0.00 | 0.00 | 0.00 | 84 | 1010.2 |
| 20260505200657 | 55 | 64 | 12.0 | 18.0 | 0.00 | 0.00 | 0.00 | 84 | 1010.1 |
| 20260505200153 | 55 | 336 | 8.0 | 19.0 | 0.00 | 0.00 | 0.00 | 84 | 1010.2 |
| 20260505195649 | 55 | 2 | 8.0 | 16.0 | 0.00 | 0.00 | 0.00 | 85 | 1010.2 |
| 20260505195146 | 55 | 355 | 7.0 | 16.0 | 0.00 | 0.00 | 0.00 | 85 | 1010.2 |
| 20260505194644 | 56 | 76 | 8.0 | 14.0 | 0.00 | 0.00 | 0.00 | 85 | 1009.9 |
| 20260505194139 | 55 | 351 | 10.0 | 16.0 | 0.00 | 0.00 | 0.00 | 85 | 1009.8 |
| 20260505193636 | 55 | 353 | 7.0 | 16.0 | 0.00 | 0.00 | 0.00 | 86 | 1010.2 |
| 20260505193133 | 55 | 5 | 7.0 | 9.0 | 0.00 | 0.00 | 0.00 | 85 | 1010.0 |
| 20260505192632 | 56 | 352 | 4.0 | 11.0 | 0.00 | 0.00 | 0.00 | 86 | 1009.9 |
| 20260505192129 | 56 | 330 | 4.0 | 11.0 | 0.00 | 0.00 | 0.00 | 86 | 1009.8 |
| 20260505191628 | 56 | 346 | 8.0 | 16.0 | 0.00 | 0.00 | 0.00 | 86 | 1009.7 |
| 20260505191125 | 56 | 348 | 6.0 | 16.0 | 0.00 | 0.00 | 0.00 | 86 | 1009.9 |
| 20260505190621 | 56 | 358 | 8.0 | 18.0 | 0.00 | 0.00 | 0.00 | 86 | 1009.6 |
| 20260505190116 | 56 | 331 | 10.0 | 14.0 | 0.00 | 0.00 | 0.00 | 86 | 1009.3 |
| 20260505185613 | 56 | 1 | 11.0 | 14.0 | 0.00 | 0.00 | 0.00 | 86 | 1009.5 |
| 20260505185109 | 56 | 52 | 6.0 | 8.0 | 0.00 | 0.00 | 0.00 | 86 | 1009.6 |
| 20260505184606 | 56 | 19 | 10.0 | 14.0 | 0.00 | 0.00 | 0.00 | 86 | 1009.5 |
| 20260505184102 | 56 | 13 | 6.0 | 13.0 | 0.00 | 0.00 | 0.00 | 87 | 1009.4 |
| 20260505183559 | 56 | 353 | 6.0 | 15.0 | 0.00 | 0.00 | 0.00 | 87 | 1009.4 |
| 20260505183057 | 56 | 7 | 10.0 | 18.0 | 0.00 | 0.00 | 0.00 | 87 | 1009.2 |
| 20260505182553 | 56 | 19 | 8.0 | 16.0 | 0.00 | 0.00 | 0.00 | 87 | 1009.4 |
| 20260505182050 | 56 | 358 | 10.0 | 16.0 | 0.00 | 0.00 | 0.00 | 87 | 1009.5 |
| 20260505181546 | 56 | 353 | 13.0 | 21.0 | 0.00 | 0.00 | 0.00 | 87 | 1009.5 |
| 20260505181044 | 56 | 10 | 13.0 | 23.0 | 0.00 | 0.00 | 0.00 | 87 | 1009.5 |
| 20260505180539 | 56 | 89 | 14.0 | 21.0 | 0.00 | 0.00 | 0.00 | 87 | 1009.2 |
| 20260505180038 | 56 | 334 | 10.0 | 15.0 | 0.00 | 0.00 | 0.00 | 88 | 1008.8 |
| 20260505175537 | 57 | 19 | 13.0 | 17.0 | 0.00 | 0.00 | 0.00 | 87 | 1008.5 |
| 20260505175035 | 56 | 20 | 10.0 | 17.0 | 0.00 | 0.00 | 0.00 | 88 | 1008.0 |
| 20260505174532 | 57 | 7 | 6.0 | 13.0 | 0.00 | 0.00 | 0.00 | 88 | 1008.7 |
| 20260505174028 | 57 | 15 | 7.0 | 13.0 | 0.00 | 0.00 | 0.00 | 88 | 1008.7 |
| 20260505173525 | 57 | 16 | 13.0 | 18.0 | 0.00 | 0.00 | 0.00 | 88 | 1008.6 |
| 20260505173021 | 57 | 15 | 13.0 | 16.0 | 0.00 | 0.00 | 0.00 | 88 | 1008.6 |
| 20260505172520 | 57 | 19 | 7.0 | 16.0 | 0.00 | 0.00 | 0.00 | 89 | 1008.7 |
| 20260505172015 | 57 | 0 | 16.0 | 21.0 | 0.00 | 0.00 | 0.00 | 89 | 1008.6 |
| 20260505171510 | 57 | 9 | 6.0 | 14.0 | 0.00 | 0.00 | 0.00 | 89 | 1008.5 |
| 20260505171008 | 57 | 13 | 11.0 | 13.0 | 0.00 | 0.00 | 0.00 | 89 | 1008.1 |
| 20260505170504 | 58 | 351 | 8.0 | 19.0 | 0.00 | 0.00 | 0.00 | 89 | 1008.1 |
| 20260505170000 | 58 | 3 | 7.0 | 13.0 | 0.00 | 0.00 | 0.00 | 89 | 1008.0 |
| 20260505165456 | 59 | 330 | 14.0 | 22.0 | 0.00 | 0.00 | 0.00 | 89 | 1008.1 |
| 20260505164951 | 59 | 325 | 10.0 | 16.0 | 0.00 | 0.00 | 0.00 | 89 | 1007.9 |
| 20260505164448 | 59 | 7 | 6.0 | 14.0 | 0.00 | 0.00 | 0.00 | 89 | 1007.9 |
| 20260505163946 | 60 | 86 | 9.0 | 15.0 | 0.00 | 0.00 | 0.00 | 89 | 1007.6 |
| 20260505163444 | 60 | 347 | 10.0 | 14.0 | 0.00 | 0.00 | 0.00 | 89 | 1007.7 |
| 20260505162944 | 60 | 14 | 9.0 | 15.0 | 0.00 | 0.00 | 0.00 | 89 | 1007.8 |
| 20260505162439 | 60 | 359 | 10.0 | 17.0 | 0.00 | 0.00 | 0.00 | 89 | 1007.5 |
| 20260505161936 | 61 | 349 | 8.0 | 11.0 | 0.00 | 0.00 | 0.00 | 89 | 1007.4 |
| 20260505161432 | 62 | 353 | 8.0 | 16.0 | 0.00 | 0.00 | 0.00 | 89 | 1007.5 |
| 20260505160930 | 63 | 43 | 9.0 | 16.0 | 0.00 | 0.00 | 0.00 | 89 | 1007.3 |
| 20260505160423 | 64 | 6 | 11.0 | 15.0 | 0.00 | 0.00 | 0.00 | 90 | 1007.2 |
| 20260505152858 | 71 | 136 | 2.0 | 4.0 | 0.00 | 0.00 | 0.00 | 82 | 1006.6 |
| 20260505152356 | 72 | 140 | 2.0 | 6.0 | 0.00 | 0.00 | 0.00 | 81 | 1006.4 |
| 20260505151855 | 71 | 165 | 1.0 | 2.0 | 0.00 | 0.00 | 0.00 | 81 | 1006.5 |
| 20260505151353 | 72 | 151 | 3.0 | 7.0 | 0.00 | 0.00 | 0.00 | 81 | 1006.2 |
| 20260505150849 | 71 | 149 | 2.0 | 10.0 | 0.00 | 0.00 | 0.00 | 81 | 1006.3 |
| 20260505150346 | 72 | 134 | 4.0 | 6.0 | 0.00 | 0.00 | 0.00 | 79 | 1006.2 |
| 20260505140311 | 68 | 106 | 4.0 | 11.0 | 0.00 | 0.00 | 0.00 | 85 | 1006.0 |
| 20260505130229 | 66 | 148 | 4.0 | 4.0 | 0.00 | 0.00 | 0.00 | 86 | 1006.7 |
| 20260505124719 | 66 | 94 | 2.0 | 9.0 | 0.00 | 0.00 | 0.00 | 87 | 1006.6 |
| 20260505124216 | 66 | 126 | 2.0 | 9.0 | 0.00 | 0.00 | 0.00 | 86 | 1006.5 |
| 20260505123711 | 66 | 99 | 4.0 | 8.0 | 0.00 | 0.00 | 0.00 | 86 | 1006.4 |
| 20260505123209 | 66 | 160 | 3.0 | 11.0 | 0.00 | 0.00 | 0.00 | 86 | 1006.4 |
| 20260505122705 | 66 | 110 | 4.0 | 8.0 | 0.00 | 0.00 | 0.00 | 86 | 1006.4 |
| 20260505122202 | 66 | 94 | 6.0 | 9.0 | 0.00 | 0.00 | 0.00 | 86 | 1006.2 |
| 20260505121659 | 66 | 99 | 1.0 | 8.0 | 0.00 | 0.00 | 0.00 | 86 | 1006.4 |
| 20260505121155 | 66 | 109 | 3.0 | 7.0 | 0.00 | 0.00 | 0.00 | 86 | 1006.1 |
| 20260505120651 | 66 | 110 | 5.0 | 7.0 | 0.00 | 0.00 | 0.00 | 86 | 1006.3 |
| 20260505120147 | 66 | 88 | 4.0 | 8.0 | 0.00 | 0.00 | 0.00 | 85 | 1006.3 |
| 20260505115641 | 66 | 75 | 3.0 | 9.0 | 0.00 | 0.00 | 0.00 | 86 | 1006.2 |
| 20260505115139 | 66 | 92 | 3.0 | 11.0 | 0.00 | 0.00 | 0.00 | 85 | 1006.2 |
| 20260505114636 | 66 | 116 | 2.0 | 8.0 | 0.00 | 0.00 | 0.00 | 85 | 1006.1 |
| 20260505114132 | 66 | 56 | 5.0 | 8.0 | 0.00 | 0.00 | 0.00 | 85 | 1006.0 |
| 20260505113629 | 66 | 74 | 3.0 | 8.0 | 0.00 | 0.00 | 0.00 | 85 | 1005.9 |
| 20260505113126 | 66 | 109 | 5.0 | 8.0 | 0.00 | 0.00 | 0.00 | 85 | 1006.0 |
| 20260505112622 | 66 | 74 | 3.0 | 8.0 | 0.00 | 0.00 | 0.00 | 85 | 1005.8 |
| 20260505112120 | 66 | 56 | 4.0 | 13.0 | 0.00 | 0.00 | 0.00 | 85 | 1005.9 |
| 20260505111614 | 66 | 144 | 3.0 | 7.0 | 0.00 | 0.00 | 0.00 | 85 | 1005.8 |
| 20260505111110 | 66 | 113 | 2.0 | 7.0 | 0.00 | 0.00 | 0.00 | 85 | 1005.6 |
| 20260505110607 | 66 | 92 | 4.0 | 9.0 | 0.00 | 0.00 | 0.00 | 85 | 1005.5 |
| 20260505110104 | 66 | 93 | 4.0 | 10.0 | 0.00 | 0.00 | 0.00 | 85 | 1005.4 |
| 20260505102039 | 66 | 90 | 3.0 | 6.0 | 0.00 | 0.00 | 0.00 | 85 | 1005.2 |
| 20260505101537 | 66 | 83 | 4.0 | 7.0 | 0.00 | 0.00 | 0.00 | 85 | 1004.9 |
| 20260505101033 | 66 | 105 | 4.0 | 6.0 | 0.00 | 0.00 | 0.00 | 85 | 1005.0 |
| 20260505100531 | 66 | 66 | 3.0 | 7.0 | 0.00 | 0.00 | 0.00 | 85 | 1004.9 |
| 20260505100027 | 66 | 22 | 4.0 | 11.0 | 0.00 | 0.00 | 0.00 | 85 | 1004.8 |
| 20260505095524 | 66 | 98 | 2.0 | 9.0 | 0.00 | 0.00 | 0.00 | 85 | 1004.8 |
| 20260505095020 | 66 | 92 | 3.0 | 6.0 | 0.00 | 0.00 | 0.00 | 86 | 1004.8 |
| 20260505094517 | 66 | 132 | 2.0 | 6.0 | 0.00 | 0.00 | 0.00 | 86 | 1004.8 |
| 20260505094013 | 66 | 85 | 3.0 | 4.0 | 0.00 | 0.00 | 0.00 | 86 | 1004.9 |
| 20260505093509 | 66 | 73 | 1.0 | 4.0 | 0.00 | 0.00 | 0.00 | 86 | 1005.0 |
| 20260505093007 | 66 | 96 | 2.0 | 3.0 | 0.00 | 0.00 | 0.00 | 87 | 1004.8 |
| 20260505092504 | 66 | 90 | 3.0 | 6.0 | 0.00 | 0.00 | 0.00 | 87 | 1004.9 |
| 20260505092002 | 66 | 60 | 3.0 | 6.0 | 0.00 | 0.00 | 0.00 | 87 | 1005.0 |
| 20260505091459 | 66 | 95 | 1.0 | 3.0 | 0.00 | 0.00 | 0.00 | 87 | 1005.1 |
| 20260505090957 | 66 | 132 | 3.0 | 6.0 | 0.00 | 0.00 | 0.00 | 87 | 1005.0 |
| 20260505090455 | 66 | 89 | 3.0 | 6.0 | 0.00 | 0.00 | 0.00 | 87 | 1005.0 |
| 20260505085952 | 66 | 137 | 2.0 | 3.0 | 0.00 | 0.00 | 0.00 | 86 | 1005.1 |
| 20260505085450 | 66 | 109 | 2.0 | 6.0 | 0.00 | 0.00 | 0.00 | 86 | 1005.1 |
| 20260505084948 | 66 | 104 | 2.0 | 4.0 | 0.00 | 0.00 | 0.00 | 86 | 1005.3 |
| 20260505084446 | 66 | 88 | 3.0 | 7.0 | 0.00 | 0.00 | 0.00 | 85 | 1005.0 |
| 20260505083943 | 66 | 74 | 5.0 | 8.0 | 0.00 | 0.00 | 0.00 | 85 | 1005.1 |
| 20260505083441 | 66 | 79 | 2.0 | 4.0 | 0.00 | 0.00 | 0.00 | 84 | 1005.1 |
| 20260505082937 | 67 | 87 | 5.0 | 8.0 | 0.00 | 0.00 | 0.00 | 84 | 1005.3 |
| 20260505082432 | 67 | 87 | 3.0 | 4.0 | 0.00 | 0.00 | 0.00 | 83 | 1005.3 |
| 20260505081930 | 67 | 129 | 4.0 | 7.0 | 0.00 | 0.00 | 0.00 | 82 | 1005.4 |
| 20260505081427 | 68 | 91 | 3.0 | 8.0 | 0.00 | 0.00 | 0.00 | 82 | 1005.2 |
| 20260505080923 | 68 | 100 | 2.0 | 10.0 | 0.00 | 0.00 | 0.00 | 81 | 1005.2 |
| 20260505080419 | 68 | 90 | 3.0 | 4.0 | 0.00 | 0.00 | 0.00 | 80 | 1005.5 |
| 20260505075915 | 68 | 128 | 2.0 | 4.0 | 0.00 | 0.00 | 0.00 | 80 | 1005.5 |
| 20260505075412 | 68 | 99 | 5.0 | 9.0 | 0.00 | 0.00 | 0.00 | 80 | 1005.4 |
| 20260505074909 | 68 | 87 | 4.0 | 8.0 | 0.00 | 0.00 | 0.00 | 80 | 1005.4 |
| 20260505074406 | 68 | 107 | 5.0 | 6.0 | 0.00 | 0.00 | 0.00 | 80 | 1006.0 |
| 20260505073903 | 68 | 67 | 5.0 | 8.0 | 0.00 | 0.00 | 0.00 | 80 | 1005.9 |
| 20260505073401 | 68 | 38 | 3.0 | 7.0 | 0.00 | 0.00 | 0.00 | 81 | 1006.0 |
| 20260505072858 | 68 | 86 | 3.0 | 4.0 | 0.00 | 0.00 | 0.00 | 81 | 1005.6 |
| 20260505072354 | 68 | 84 | 1.0 | 6.0 | 0.00 | 0.00 | 0.00 | 81 | 1006.0 |
| 20260505071850 | 68 | 49 | 3.0 | 3.0 | 0.00 | 0.00 | 0.00 | 81 | 1006.0 |
| 20260505071347 | 68 | 105 | 1.0 | 1.0 | 0.00 | 0.00 | 0.00 | 81 | 1006.1 |
| 20260505070845 | 68 | 54 | 1.0 | 3.0 | 0.00 | 0.00 | 0.00 | 81 | 1006.0 |
| 20260505070341 | 68 | 90 | 0.0 | 4.0 | 0.00 | 0.00 | 0.00 | 81 | 1005.9 |
| 20260505065837 | 68 | 33 | 2.0 | 4.0 | 0.00 | 0.00 | 0.00 | 81 | 1006.4 |
| 20260505065334 | 68 | 73 | 1.0 | 3.0 | 0.00 | 0.00 | 0.00 | 81 | 1006.1 |
| 20260505064831 | 68 | 51 | 1.0 | 2.0 | 0.00 | 0.00 | 0.00 | 80 | 1006.2 |
| 20260505064327 | 68 | 14 | 2.0 | 2.0 | 0.00 | 0.00 | 0.00 | 80 | 1006.2 |
| 20260505063826 | 68 | 0 | 2.0 | 4.0 | 0.00 | 0.00 | 0.00 | 79 | 1006.0 |
| 20260505063321 | 68 | 38 | 2.0 | 3.0 | 0.00 | 0.00 | 0.00 | 79 | 1006.0 |
| 20260505062818 | 68 | 104 | 2.0 | 3.0 | 0.00 | 0.00 | 0.00 | 79 | 1006.0 |
| 20260505062316 | 68 | 136 | 1.0 | 4.0 | 0.00 | 0.00 | 0.00 | 79 | 1005.3 |
| 20260505061812 | 68 | 168 | 3.0 | 8.0 | 0.00 | 0.00 | 0.00 | 79 | 1005.2 |
| 20260505061311 | 68 | 156 | 1.0 | 6.0 | 0.00 | 0.00 | 0.00 | 79 | 1004.9 |
| 20260505060808 | 68 | 144 | 3.0 | 6.0 | 0.00 | 0.00 | 0.00 | 79 | 1005.1 |
| 20260505060305 | 68 | 148 | 3.0 | 8.0 | 0.00 | 0.00 | 0.00 | 78 | 1005.2 |
| 20260505055800 | 68 | 146 | 4.0 | 7.0 | 0.00 | 0.00 | 0.00 | 78 | 1005.2 |
| 20260505055256 | 68 | 179 | 2.0 | 9.0 | 0.00 | 0.00 | 0.00 | 78 | 1005.5 |
| 20260505054754 | 68 | 116 | 7.0 | 10.0 | 0.00 | 0.00 | 0.00 | 77 | 1005.3 |
| 20260505054251 | 68 | 176 | 3.0 | 8.0 | 0.00 | 0.00 | 0.00 | 77 | 1005.3 |
| 20260505053749 | 68 | 181 | 6.0 | 10.0 | 0.00 | 0.00 | 0.00 | 76 | 1005.6 |
| 20260505053246 | 69 | 162 | 4.0 | 10.0 | 0.00 | 0.00 | 0.00 | 76 | 1005.4 |
| 20260505052743 | 69 | 152 | 7.0 | 9.0 | 0.00 | 0.00 | 0.00 | 75 | 1005.5 |
| 20260505052240 | 69 | 149 | 5.0 | 13.0 | 0.00 | 0.00 | 0.00 | 75 | 1005.8 |
| 20260505051737 | 69 | 194 | 6.0 | 9.0 | 0.00 | 0.00 | 0.00 | 75 | 1005.4 |
| 20260505051235 | 69 | 156 | 6.0 | 11.0 | 0.00 | 0.00 | 0.00 | 74 | 1005.4 |
| 20260505050732 | 69 | 161 | 9.0 | 13.0 | 0.00 | 0.00 | 0.00 | 75 | 1005.4 |
| 20260505050231 | 69 | 148 | 4.0 | 8.0 | 0.00 | 0.00 | 0.00 | 76 | 1005.6 |
| 20260505041700 | 70 | 143 | 3.0 | 14.0 | 0.00 | 0.00 | 0.00 | 71 | 1005.8 |
| 20260505041158 | 70 | 193 | 3.0 | 13.0 | 0.00 | 0.00 | 0.00 | 71 | 1006.0 |
| 20260505040655 | 70 | 154 | 4.0 | 9.0 | 0.00 | 0.00 | 0.00 | 71 | 1005.6 |
| 20260505040152 | 69 | 134 | 4.0 | 10.0 | 0.00 | 0.00 | 0.00 | 72 | 1006.1 |
| 20260505035648 | 70 | 170 | 8.0 | 14.0 | 0.00 | 0.00 | 0.00 | 71 | 1005.8 |
| 20260505035144 | 70 | 148 | 6.0 | 11.0 | 0.00 | 0.00 | 0.00 | 70 | 1006.0 |
| 20260505034641 | 70 | 154 | 4.0 | 8.0 | 0.00 | 0.00 | 0.00 | 70 | 1006.0 |
| 20260505034139 | 70 | 188 | 5.0 | 10.0 | 0.00 | 0.00 | 0.00 | 69 | 1006.5 |
| 20260505033635 | 70 | 169 | 6.0 | 11.0 | 0.00 | 0.00 | 0.00 | 69 | 1006.4 |
| 20260505033133 | 70 | 197 | 6.0 | 10.0 | 0.00 | 0.00 | 0.00 | 69 | 1006.4 |
| 20260505032631 | 70 | 148 | 9.0 | 11.0 | 0.00 | 0.00 | 0.00 | 69 | 1006.4 |
| 20260505032127 | 70 | 153 | 4.0 | 11.0 | 0.00 | 0.00 | 0.00 | 70 | 1006.6 |
| 20260505031624 | 70 | 128 | 4.0 | 7.0 | 0.00 | 0.00 | 0.00 | 70 | 1006.7 |
| 20260505031120 | 69 | 123 | 2.0 | 8.0 | 0.00 | 0.00 | 0.00 | 70 | 1006.8 |
| 20260505030618 | 70 | 172 | 5.0 | 6.0 | 0.00 | 0.00 | 0.00 | 70 | 1006.9 |
| 20260505030113 | 70 | 153 | 4.0 | 6.0 | 0.00 | 0.00 | 0.00 | 69 | 1007.1 |
| 20260505025609 | 70 | 91 | 3.0 | 6.0 | 0.00 | 0.00 | 0.00 | 69 | 1006.9 |
| 20260505025108 | 70 | 146 | 4.0 | 7.0 | 0.00 | 0.00 | 0.00 | 69 | 1007.0 |
| 20260505024605 | 71 | 126 | 5.0 | 7.0 | 0.00 | 0.00 | 0.00 | 68 | 1007.2 |
| 20260505024103 | 71 | 171 | 7.0 | 8.0 | 0.00 | 0.00 | 0.00 | 68 | 1007.2 |
| 20260505023600 | 71 | 154 | 3.0 | 7.0 | 0.00 | 0.00 | 0.00 | 68 | 1007.0 |
| 20260505023057 | 71 | 166 | 2.0 | 4.0 | 0.00 | 0.00 | 0.00 | 68 | 1006.9 |
| 20260505022554 | 71 | 167 | 4.0 | 9.0 | 0.00 | 0.00 | 0.00 | 68 | 1006.9 |
| 20260505022051 | 71 | 176 | 3.0 | 7.0 | 0.00 | 0.00 | 0.00 | 67 | 1006.7 |
| 20260505021548 | 71 | 157 | 5.0 | 8.0 | 0.00 | 0.00 | 0.00 | 66 | 1006.9 |
| 20260505021045 | 71 | 159 | 3.0 | 9.0 | 0.00 | 0.00 | 0.00 | 67 | 1006.8 |
| 20260505020544 | 71 | 144 | 5.0 | 7.0 | 0.00 | 0.00 | 0.00 | 66 | 1006.8 |
| 20260505020042 | 72 | 159 | 5.0 | 8.0 | 0.00 | 0.00 | 0.00 | 66 | 1006.9 |
| 20260505015539 | 72 | 150 | 3.0 | 9.0 | 0.00 | 0.00 | 0.00 | 66 | 1007.0 |
| 20260505015035 | 72 | 145 | 4.0 | 8.0 | 0.00 | 0.00 | 0.00 | 66 | 1007.1 |
| 20260505014532 | 72 | 155 | 4.0 | 7.0 | 0.00 | 0.00 | 0.00 | 66 | 1006.8 |